Weather History for Middletown, PA

Change the Weather History Date:

Friday, March 7, 2014

  Actual Average Record
Temperature  
Mean Temperature 34 °F 39 °F  
Max Temperature 42 °F 47 °F 74 °F (1921)
Min Temperature 25 °F 30 °F 8 °F (1890)
Degree Days  
Heating Degree Days 31 26  
Month to date heating degree days 267 191  
Since 1 July heating degree days 4611 4179  
Cooling Degree Days 0 0  
Month to date cooling degree days 0 0  
Year to date cooling degree days 0 0  
Moisture  
Dew Point 21 °F    
Average Humidity 66    
Maximum Humidity 78    
Minimum Humidity 54    
Precipitation  
Precipitation 0.00 in 0.10 in 1.63 in (1930)
Month to date precipitation 0.11 0.65  
Year to date precipitation 6.82 5.92  
Snow  
Snow 0.00 in - - ()
Month to date snowfall 0.3  
Since 1 July snowfall 42.9  
Snow Depth 0.00 in    
Sea Level Pressure  
Sea Level Pressure 30.18 in    
Wind  
Wind Speed 4 mph (NE)    
Max Wind Speed 10 mph    
Max Gust Speed 14 mph    
Visibility 10 miles    
Events      
T = Trace of Precipitation, MM = Missing Value Source: NWS Daily Summary

Daily Weather History Graph

Daily Weather History Graph

Search for Another Location

Airport:

Trip Planner

Search our weather history database for the weather conditions in past years. The results will help you decide how hot, cold, wet, or windy it might be!

Date:

Astronomy

Mar. 07, 2014 Rise Set
Actual Time 6:31 AM EST 6:05 PM EST
Civil Twilight 6:04 AM EST 6:32 PM EST
Nautical Twilight 5:32 AM EST 7:03 PM EST
Astronomical Twilight 5:01 AM EST 7:35 PM EST
Moon 10:22 AM EST (3/7) 12:08 AM EST (3/7)
Length of Visible Light 12h 28m
Length of Day
11h 34m
Waxing Crescent, 42% of the Moon is Illuminated
Mar 7
Waxing Crescent
Mar 8
First Quarter
Mar 16
Full
Mar 23
Last Quarter
Mar 30
New

Hourly Weather History & Observations

Time (EST) Temp. Windchill Dew Point Humidity Pressure Visibility Wind Dir Wind Speed Gust Speed Precip Events Conditions
12:56 AM 26.1 °F 16.8 °F 14.0 °F 60% 30.40 in 10.0 mi East 9.2 mph - N/A   Overcast
1:56 AM 26.1 °F 17.6 °F 16.0 °F 66% 30.39 in 10.0 mi East 8.1 mph - N/A   Overcast
2:56 AM 26.1 °F 19.4 °F 16.0 °F 66% 30.36 in 10.0 mi ENE 5.8 mph - N/A   Overcast
3:56 AM 26.1 °F 20.5 °F 16.0 °F 66% 30.35 in 10.0 mi ENE 4.6 mph - N/A   Overcast
4:56 AM 26.1 °F 21.9 °F 15.1 °F 63% 30.33 in 10.0 mi ENE 3.5 mph - N/A   Overcast
5:56 AM 25.0 °F 19.3 °F 15.1 °F 66% 30.32 in 10.0 mi NNE 4.6 mph - N/A   Overcast
6:56 AM 25.0 °F 19.3 °F 15.1 °F 66% 30.30 in 10.0 mi NE 4.6 mph - N/A   Overcast
7:56 AM 26.1 °F 19.4 °F 16.0 °F 66% 30.30 in 10.0 mi ENE 5.8 mph - N/A   Overcast
8:56 AM 27.0 °F 20.5 °F 17.1 °F 66% 30.27 in 10.0 mi Variable 5.8 mph - N/A   Mostly Cloudy
9:56 AM 30.0 °F 25.2 °F 19.0 °F 64% 30.26 in 10.0 mi NE 4.6 mph - N/A   Overcast
10:06 AM 30.0 °F 24.1 °F 19.0 °F 64% 30.24 in 10.0 mi NNE 5.8 mph - N/A   Overcast
10:41 AM 30.9 °F 26.2 °F 19.9 °F 64% 30.23 in 10.0 mi North 4.6 mph - N/A   Overcast
10:56 AM 33.1 °F 27.7 °F 21.0 °F 61% 30.24 in 10.0 mi ENE 5.8 mph - N/A   Overcast
11:56 AM 35.1 °F 32.2 °F 23.0 °F 61% 30.20 in 10.0 mi Variable 3.5 mph - N/A   Overcast
12:56 PM 36.0 °F - 23.0 °F 59% 30.16 in 10.0 mi Calm Calm - N/A   Overcast
1:56 PM 37.9 °F 35.5 °F 25.0 °F 60% 30.13 in 10.0 mi North 3.5 mph - N/A   Mostly Cloudy
2:56 PM 39.9 °F 35.8 °F 25.0 °F 55% 30.10 in 10.0 mi NNE 5.8 mph - N/A   Mostly Cloudy
3:56 PM 41.0 °F 37.1 °F 26.1 °F 55% 30.06 in 10.0 mi South 5.8 mph - N/A   Scattered Clouds
4:56 PM 39.0 °F 33.4 °F 27.0 °F 62% 30.04 in 10.0 mi SE 8.1 mph - N/A   Scattered Clouds
5:56 PM 37.9 °F - 24.1 °F 57% 30.03 in 10.0 mi Calm Calm - N/A   Scattered Clouds
6:56 PM 37.0 °F - 24.1 °F 59% 30.03 in 10.0 mi Calm Calm - N/A   Scattered Clouds
7:56 PM 33.1 °F - 25.0 °F 72% 30.02 in 10.0 mi Calm Calm - N/A   Partly Cloudy
8:56 PM 30.9 °F - 24.1 °F 76% 30.01 in 10.0 mi Calm Calm - N/A   Clear
9:56 PM 28.9 °F - 23.0 °F 78% 30.00 in 9.0 mi Calm Calm - N/A   Clear
10:56 PM 30.0 °F 25.2 °F 23.0 °F 75% 29.98 in 9.0 mi NNW 4.6 mph - N/A   Clear
11:56 PM 28.9 °F 22.8 °F 23.0 °F 78% 29.96 in 9.0 mi NNW 5.8 mph - N/A   Clear